Buena Vista, CO

3:37 PM MST on December 08, 2016 (GMT -0700)
Buena Vista

Weather History for KAEJ - May, 2013

Change the Weather History Date:

Tuesday, May 7, 2013

  Actual Average (KLXV) Record (KLXV)
Temperature  
Mean Temperature 44 °F -  
Max Temperature 57 °F 49 °F 65 °F (1989)
Min Temperature 32 °F 26 °F 8 °F (1978)
Degree Days  
Heating Degree Days 20    
Moisture  
Dew Point 32 °F    
Average Humidity 68    
Maximum Humidity 99    
Minimum Humidity 28    
Precipitation  
Precipitation 0.00 in - - ()
Sea Level Pressure  
Sea Level Pressure 30.09 in    
Wind  
Wind Speed 4 mph (WNW)    
Max Wind Speed 17 mph    
Max Gust Speed 25 mph    
Visibility 10 miles    
Events Fog , Rain , Thunderstorm    
Averages and records for this station are not official NWS values.
T = Trace of Precipitation, MM = Missing Value Source: NWS Daily Summary

Daily Weather History Graph

Daily Weather History Graph

Search for Another Location

Airport or City:

Trip Planner

Search our weather history database for the weather conditions in past years. The results will help you decide how hot, cold, wet, or windy it might be!

Date:

Astronomy

May. 07, 2013 Rise Set
Actual Time 5:59 AM MDT 8:02 PM MDT
Civil Twilight 5:30 AM MDT 8:32 PM MDT
Nautical Twilight 4:54 AM MDT 9:08 PM MDT
Astronomical Twilight 4:16 AM MDT 9:47 PM MDT
Moon 4:34 AM MDT (5/7) 6:06 PM MDT (5/7)
Length of Visible Light 15h 01m
Length of Day
14h 03m
Waning Crescent, 5% of the Moon is Illuminated
May 7
Waning Crescent
May 9
New
May 17
First Quarter
May 24
Full
May 31
Last Quarter

Hourly Weather History & Observations

Time (MDT) Temp. Windchill Dew Point Humidity Pressure Visibility Wind Dir Wind Speed Gust Speed Precip Events Conditions
12:15 AM 36.5 °F 33.9 °F 34.7 °F 93% 30.11 in 10.0 mi North 3.5 mph - N/A   Scattered Clouds
12:35 AM 36.5 °F - 34.7 °F 93% 30.11 in 10.0 mi Calm Calm - N/A   Mostly Cloudy
12:55 AM 36.5 °F - 34.5 °F 93% 30.12 in 10.0 mi Calm Calm - N/A   Scattered Clouds
1:15 AM 36.1 °F - 34.3 °F 93% 30.11 in 10.0 mi Calm Calm - N/A   Clear
1:35 AM 35.6 °F - 34.0 °F 94% 30.10 in 10.0 mi Calm Calm - N/A   Clear
1:55 AM 35.6 °F 30.7 °F 33.8 °F 93% 30.09 in 10.0 mi WNW 5.8 mph - N/A   Clear
2:15 AM 34.5 °F 31.6 °F 33.3 °F 95% 30.09 in 10.0 mi West 3.5 mph - N/A   Clear
2:35 AM 34.7 °F 30.6 °F 33.6 °F 96% 30.09 in 10.0 mi South 4.6 mph - N/A   Scattered Clouds
2:55 AM 34.7 °F - 33.1 °F 94% 30.08 in 10.0 mi Calm Calm - N/A   Scattered Clouds
3:15 AM 34.2 °F - 32.9 °F 95% 30.08 in 10.0 mi Calm Calm - N/A   Scattered Clouds
3:35 AM 33.8 °F - 32.7 °F 96% 30.07 in 10.0 mi Calm Calm - N/A   Scattered Clouds
3:55 AM 33.8 °F - 32.5 °F 95% 30.09 in 10.0 mi Calm Calm - N/A   Clear
4:15 AM 33.1 °F - 32.0 °F 96% 30.07 in 10.0 mi Calm Calm - N/A   Scattered Clouds
4:35 AM 32.9 °F 29.8 °F 32.0 °F 96% 30.08 in 10.0 mi ESE 3.5 mph - N/A   Scattered Clouds
4:55 AM 32.2 °F - 31.6 °F 98% 30.08 in 10.0 mi Calm Calm - N/A   Scattered Clouds
5:15 AM 32.0 °F - 31.1 °F 96% 30.08 in 0.2 mi Calm Calm - N/A Fog Fog
5:35 AM 32.2 °F 28.9 °F 32.0 °F 99% 30.08 in 7.0 mi North 3.5 mph - N/A   Scattered Clouds
5:55 AM 32.0 °F - 31.1 °F 96% 30.09 in 0.8 mi Calm Calm - N/A   Mostly Cloudy
6:15 AM 32.0 °F - 31.6 °F 99% 30.09 in 7.0 mi Calm Calm - N/A   Scattered Clouds
6:35 AM 32.2 °F - 32.0 °F 99% 30.09 in 7.0 mi Calm Calm - N/A   Clear
6:55 AM 33.6 °F - 32.9 °F 97% 30.10 in 7.0 mi Calm Calm - N/A   Clear
7:15 AM 35.8 °F - 34.7 °F 96% 30.11 in 10.0 mi Calm Calm - N/A   Scattered Clouds
7:35 AM 38.5 °F - 34.9 °F 87% 30.11 in 10.0 mi Calm Calm - N/A   Scattered Clouds
7:55 AM 39.4 °F 36.1 °F 36.1 °F 88% 30.11 in 10.0 mi South 4.6 mph - N/A   Scattered Clouds
8:15 AM 40.3 °F - 35.2 °F 82% 30.11 in 10.0 mi Calm Calm - N/A   Clear
8:35 AM 42.3 °F 40.5 °F 35.4 °F 77% 30.11 in 10.0 mi ESE 3.5 mph - N/A   Clear
8:55 AM 43.5 °F 40.1 °F 34.9 °F 72% 30.11 in 10.0 mi SE 5.8 mph - N/A   Scattered Clouds
9:15 AM 45.5 °F 44.2 °F 34.7 °F 66% 30.11 in 10.0 mi East 3.5 mph - N/A   Scattered Clouds
9:35 AM 47.1 °F - 35.6 °F 64% 30.11 in 10.0 mi Calm Calm - N/A   Scattered Clouds
9:55 AM 48.2 °F - 33.8 °F 58% 30.11 in 10.0 mi Calm Calm - N/A   Scattered Clouds
10:15 AM 50.9 °F - 28.8 °F 43% 30.10 in 10.0 mi West 9.2 mph - N/A   Scattered Clouds
10:35 AM 51.4 °F - 27.9 °F 40% 30.10 in 10.0 mi WSW 10.4 mph 18.4 mph N/A   Scattered Clouds
10:55 AM 52.7 °F - 27.1 °F 37% 30.09 in 10.0 mi WSW 13.8 mph 17.3 mph N/A   Clear
11:15 AM 53.6 °F - 26.1 °F 35% 30.09 in 10.0 mi NW 9.2 mph 18.4 mph N/A   Clear
11:35 AM 53.2 °F - 26.2 °F 35% 30.09 in 10.0 mi SW 5.8 mph - N/A   Scattered Clouds
11:55 AM 54.3 °F - 25.3 °F 33% 30.09 in 10.0 mi SW 4.6 mph - N/A   Scattered Clouds
12:15 PM 54.9 °F - 24.1 °F 30% 30.08 in 10.0 mi WNW 3.5 mph - N/A   Scattered Clouds
12:35 PM 57.0 °F - 25.5 °F 30% 30.07 in 10.0 mi WNW 6.9 mph - N/A   Clear
12:55 PM 55.9 °F - 24.3 °F 29% 30.07 in 10.0 mi SW 6.9 mph - N/A   Clear
1:15 PM 56.1 °F - 25.7 °F 31% 30.06 in 10.0 mi NW 11.5 mph 17.3 mph N/A   Clear
1:35 PM 55.8 °F - 25.7 °F 31% 30.05 in 10.0 mi WNW 9.2 mph - N/A   Mostly Cloudy
1:55 PM 57.0 °F - 26.1 °F 30% 30.05 in 10.0 mi NNW 12.7 mph 18.4 mph N/A   Mostly Cloudy
2:15 PM 56.1 °F - 23.4 °F 28% 30.04 in 10.0 mi WNW 5.8 mph 10.4 mph N/A   Scattered Clouds
2:35 PM 55.4 °F - 23.5 °F 29% 30.04 in 10.0 mi West 3.5 mph - N/A   Overcast
2:55 PM 54.7 °F - 22.3 °F 28% 30.04 in 10.0 mi West 4.6 mph - N/A   Overcast
3:15 PM 54.0 °F - 24.4 °F 32% 30.05 in 10.0 mi NNW 6.9 mph - N/A   Overcast
3:35 PM 51.1 °F - 30.0 °F 44% 30.06 in 10.0 mi West 12.7 mph 21.9 mph N/A Rain Light Rain
3:55 PM 50.9 °F - 30.2 °F 45% 30.05 in 10.0 mi WSW 13.8 mph 20.7 mph N/A Thunderstorm Thunderstorm
4:15 PM 50.2 °F - 31.8 °F 49% 30.06 in 10.0 mi WSW 17.3 mph 23.0 mph N/A   Overcast
4:35 PM 51.1 °F - 29.3 °F 43% 30.07 in 10.0 mi SSW 15.0 mph 25.3 mph N/A   Overcast
4:55 PM 46.0 °F 39.6 °F 37.6 °F 72% 30.10 in 10.0 mi ESE 15.0 mph 20.7 mph N/A Rain Rain
5:15 PM 46.9 °F - 36.7 °F 68% 30.09 in 10.0 mi East 8.1 mph - N/A   Light Drizzle
5:35 PM 48.4 °F - 35.4 °F 61% 30.09 in 10.0 mi East 6.9 mph - N/A   Mostly Cloudy
5:55 PM 47.3 °F - 34.0 °F 60% 30.09 in 10.0 mi Calm Calm - N/A   Mostly Cloudy
6:15 PM 47.3 °F - 34.7 °F 62% 30.09 in 10.0 mi Calm Calm - N/A   Overcast
6:35 PM 47.1 °F - 34.3 °F 61% 30.09 in 10.0 mi Calm Calm - N/A   Mostly Cloudy
6:55 PM 46.6 °F - 34.2 °F 62% 30.09 in 10.0 mi NW 4.6 mph - N/A   Clear
7:15 PM 45.7 °F 42.0 °F 34.9 °F 66% 30.09 in 10.0 mi NW 6.9 mph - N/A   Scattered Clouds
7:35 PM 44.6 °F 41.4 °F 34.9 °F 69% 30.09 in 10.0 mi WNW 5.8 mph - N/A   Scattered Clouds
7:55 PM 44.1 °F 41.5 °F 34.9 °F 70% 30.09 in 10.0 mi NW 4.6 mph - N/A   Light Drizzle
8:15 PM 43.2 °F 41.5 °F 35.6 °F 75% 30.09 in 10.0 mi West 3.5 mph - N/A   Clear
8:35 PM 43.5 °F 38.9 °F 34.3 °F 70% 30.09 in 10.0 mi NNW 8.1 mph - N/A   Clear
8:55 PM 43.3 °F 39.2 °F 34.0 °F 70% 30.10 in 10.0 mi NW 6.9 mph - N/A   Clear
9:15 PM 43.7 °F 37.7 °F 34.7 °F 71% 30.10 in 10.0 mi NW 11.5 mph 16.1 mph N/A   Clear
9:35 PM 43.9 °F 36.2 °F 34.0 °F 68% 30.09 in 10.0 mi NNW 17.3 mph 21.9 mph N/A   Clear
9:55 PM 42.8 °F 35.4 °F 32.9 °F 68% 30.10 in 10.0 mi NW 15.0 mph 24.2 mph N/A   Clear
10:15 PM 42.1 °F 37.1 °F 32.9 °F 70% 30.11 in 10.0 mi NW 8.1 mph - N/A   Clear
10:35 PM 40.6 °F - 32.9 °F 74% 30.10 in 10.0 mi Calm Calm - N/A   Clear
10:55 PM 39.9 °F 36.7 °F 32.5 °F 75% 30.10 in 10.0 mi NW 4.6 mph - N/A   Clear
11:15 PM 40.1 °F 36.9 °F 32.0 °F 73% 30.10 in 10.0 mi NW 4.6 mph - N/A   Clear
11:35 PM 39.2 °F 34.2 °F 32.4 °F 76% 30.10 in 10.0 mi NW 6.9 mph - N/A   Clear
11:55 PM 38.8 °F 34.6 °F 32.7 °F 79% 30.10 in 10.0 mi NW 5.8 mph - N/A   Clear